Flag Weather past 2 weeks in Duisburg, North Rhine-Westphalia, Germany

Now
64 °F

Sunny.


Feels Like: 64 °F
Forecast: 52 / 62 °F
Wind: 15 mph from Southeast

Location: Duesseldorf

Current Time: Nov 1, 2014 at 11:35:25 AM

Latest Report: Nov 1, 2014 at 11:20 AM


Visibility: 10 mi

Pressure: 30.12 "Hg

Humidity: 60%

Dew point: 50 °F

Location of DuisburgLocation

Historic Weather in Duisburg — Graph

°F

Duisburg temperature yesterday

Maximum temperature yesterday: 66 °F (at 1:50 PM)
Minimum temperature yesterday: 55 °F (at 2:20 AM)
Average temperature yesterday: 60 °F

Past Weeks' High & Low Weather Summary

 TemperatureHumidityPressure
High75 °F (Oct 19, 2:20 PM)100% (Oct 25, 9:20 AM)30.27 "Hg (Oct 25, 9:20 AM)
Low43 °F (Oct 28, 9:20 PM)57% (Oct 19, 2:20 PM)29.50 "Hg (Oct 21, 3:20 PM)
Average55 °F82%30.09 "Hg
* Reported Oct 17 11:20 AM — Nov 1 10:20 AM, Duisburg, Weather by CustomWeather, © 2014

Note: Actual official high and low records may vary slightly from our data, if they occured in-between our weather recording intervals... More about our weather records

Advertising

Duisburg weather history for previous 24 hours

 ConditionsComfort  
Time TempWeatherWind HumidityBarometerVisibility
10:20 AM
Nov 1
61 °FSunny.13 mph72%30.12 "Hg10 mi
9:50 AM59 °FSunny.15 mph72%30.12 "Hg10 mi
9:20 AM59 °FSunny.15 mph72%30.12 "Hg10 mi
8:50 AM57 °FSunny.15 mph77%30.12 "Hg10 mi
8:20 AM57 °FSunny.14 mph77%30.12 "Hg10 mi
7:50 AM55 °FSunny.13 mph82%30.12 "Hg10 mi
7:20 AM55 °FClear.13 mph82%30.12 "Hg10 mi
6:50 AM55 °FClear.10 mph82%30.12 "Hg10 mi
6:20 AM55 °FClear.12 mph82%30.12 "Hg10 mi
5:50 AM55 °FClear.12 mph82%30.12 "Hg10 mi
5:20 AM55 °FClear.10 mph82%30.09 "Hg10 mi
4:50 AM55 °FClear.13 mph82%30.12 "Hg10 mi
4:20 AM55 °FClear.10 mph82%30.12 "Hg10 mi
3:50 AM57 °FClear.13 mph77%30.12 "Hg10 mi
3:20 AM57 °FClear.13 mph77%30.12 "Hg10 mi
2:50 AM57 °FClear.12 mph77%30.12 "Hg10 mi
2:20 AM57 °FClear.13 mph77%30.15 "Hg10 mi
1:50 AM57 °FClear.13 mph77%30.15 "Hg10 mi
1:20 AM57 °FClear.13 mph82%30.15 "Hg10 mi
12:50 AM57 °FClear.13 mph82%30.15 "Hg10 mi
12:20 AM57 °FClear.12 mph82%30.15 "Hg10 mi
11:50 PM
Oct 31
57 °FClear.12 mph82%30.15 "Hg10 mi
11:20 PM57 °FClear.12 mph82%30.15 "Hg10 mi
10:50 PM57 °FClear.13 mph82%30.15 "Hg10 mi
10:20 PM59 °FClear.13 mph77%30.18 "Hg10 mi
9:50 PM59 °FClear.13 mph82%30.18 "Hg10 mi
9:20 PM59 °FClear.14 mph82%30.18 "Hg10 mi
8:50 PM59 °FClear.13 mph82%30.18 "Hg10 mi
8:20 PM61 °FClear.13 mph77%30.18 "Hg10 mi
7:50 PM61 °FClear.13 mph77%30.18 "Hg10 mi
7:20 PM61 °FClear.13 mph77%30.18 "Hg10 mi
6:50 PM61 °FClear.13 mph77%30.18 "Hg10 mi
6:20 PM63 °FClear.12 mph73%30.18 "Hg10 mi
5:50 PM63 °FClear.10 mph73%30.18 "Hg10 mi
5:20 PM63 °FClear.12 mph73%30.18 "Hg10 mi
4:50 PM64 °FSunny.9 mph68%30.15 "Hg10 mi
4:20 PM64 °FSunny.9 mph68%30.18 "Hg10 mi
3:50 PM64 °FSunny.9 mph68%30.18 "Hg10 mi
3:20 PM64 °FSunny.9 mph68%30.18 "Hg10 mi
2:50 PM64 °FSunny.12 mph68%30.18 "Hg10 mi
2:20 PM66 °FSunny.14 mph64%30.18 "Hg10 mi
1:50 PM66 °FSunny.12 mph64%30.18 "Hg10 mi
1:20 PM64 °FSunny.10 mph68%30.18 "Hg10 mi
12:50 PM64 °FSunny.14 mph68%30.21 "Hg10 mi
12:20 PM64 °FSunny.10 mph68%30.21 "Hg10 mi
11:50 AM64 °FSunny.12 mph68%30.21 "Hg10 mi
11:20 AM63 °FSunny.12 mph68%30.21 "Hg10 mi
Weather by CustomWeather, © 2014

See weather overviewHow to use our weather pages